Voltar ao catálogo

STARLINK-31663

AtivoComunicaçõesVLEO
NORAD 59576·PAYLOAD·🇺🇸 United States

Lançado Apr 23, 2024 de Cape Canaveral Space Force Station

Loading…

Próximas Passagens (próximas 24 horas)

TLE

AtualizadoSource: CelesTrak SupGP

Época: Sep 14, 2026, 20:43 UTC

1 59576C 24076N   26257.86368056  .00046366  00000+0  16793-2 0  2574
2 59576  43.0042  20.9098 0001767 273.8066   0.7424 15.27556278    14

Acompanhe STARLINK-31663 em tempo real com AllMySat

Download on the App Store